Regional Weather Roundup
Issued by NWS

Home | Current Version | Previous Version | Text Only | Print | Product List | Glossary On
Versions: 1 2 3 4 5 6 7 8 9 10 11 12 13 14 15 16 17 18 19 20 21 22 23 24 25 26 27 28 29 30 31 32 33 34 35 36 37 38 39 40 41 42 43 44 45 46 47 48 49 50
000
ASUS43 KMPX 022110
RWRMN
WEATHER ROUNDUP FOR MINNESOTA
NATIONAL WEATHER SERVICE TWIN CITIES/CHANHASSEN MN
400 PM CDT THU JUL 02 2015


NOTE: "FAIR" INDICATES FEW OR NO CLOUDS BELOW 12,000 FEET WITH NO
SIGNIFICANT WEATHER AND/OR OBSTRUCTIONS TO VISIBILITY. N/A MEANS
CURRENT SKY AND/OR WEATHER CONDITIONS ARE NOT AVAILABLE.

MNZ060>063-068>070-022200-
   Twin Cities Metro

CITY           SKY/WX    TMP DP  RH WIND       PRES   REMARKS
TWIN CITIES    MOSUNNY   75  53  46 SE6       30.00F
ST PAUL        SUNNY     76  55  48 SE7       30.00F
CRYSTAL        MOSUNNY   78  50  37 SE9       29.98F
LAKEVILLE      MOSUNNY   73  55  53 W5        30.01F
EDEN PRAIRIE   MOSUNNY   75  54  47 VRB3      29.99F
SOUTH ST PAUL  SUNNY     75  51  43 S3        30.00S
LAKE ELMO      FAIR      77  55  47 S9        30.02S
$$
MNZ001>005-007-008-013>017-022>024-027-028-022200-
   Northwest Minnesota

CITY           SKY/WX    TMP DP  RH WIND       PRES   REMARKS
BEMIDJI        MOSUNNY   75  56  51 SW7       29.97F
HALLOCK        MOSUNNY   77  66  69 S9        29.88F
ROSEAU         MOSUNNY   73  64  73 SW10      29.92F
WARROAD        MOSUNNY   73  63  68 SW12G18   29.92F
THIEF RVR FALL MOSUNNY   75  55  50 SW14G22   29.94F
CROOKSTON      PTSUNNY   75  59  57 SW14      29.94S
FOSSTON        SUNNY     75  55  50 SW13G18   29.97F
DETROIT LAKES  SUNNY     73  52  46 S13       30.00F
MOORHEAD       SUNNY     75  54  46 S8        29.98R
PARK RAPIDS    SUNNY     77  54  44 S8        29.99F
MAHNOMEN       FAIR      75  55  50 SW9       29.97F
$$
MNZ006-009>011-018-025>026-022200-
   North Central Minnesota

CITY           SKY/WX    TMP DP  RH WIND       PRES   REMARKS
BAUDETTE       MOSUNNY   75  53  46 SW12      29.92F
FLAG ISLAND    MOSUNNY   73  59  60 SW9       29.89F
INTL FALLS     MOSUNNY   75  56  51 W9        29.93F
WASKISH        PTSUNNY   75  61  60 SW9       29.95F
BIG FORK       MOSUNNY   75  57  53 SW9G16    29.97F
LONGVILLE      SUNNY     75  57  53 SW7       29.99S
GRAND RAPIDS   MOSUNNY   75  55  50 SW6       29.99S
CRANE LAKE     PTSUNNY   75  57  53 W6        29.95F
ORR            MOSUNNY   75  54  46 SW7       29.93F
COOK           MOSUNNY   75  55  50 SW8       29.96F
WALKER         FAIR      75  55  50 SW8       29.98F
$$
MNZ012-019>021-037-022200-
   Northeast Minnesota

CITY           SKY/WX    TMP DP  RH WIND       PRES   REMARKS
DULUTH         PTSUNNY   76  58  53 W7        29.98F
ELY            PTSUNNY   75  57  53 W8        29.95F
HIBBING        MOSUNNY   76  56  49 VRB7      29.97F
EVELETH        MOSUNNY   75  59  57 SW6       29.98
DULUTH HARBOR  SUNNY     79  61  53 S7        29.96F
TWO HARBORS    MOSUNNY   79  64  61 SW10      29.95F
SILVER BAY     MOSUNNY   77  61  57 S5        29.94F
GRAND MARAIS     N/A     54  51  90 SW5       29.94F
G MARAIS ARPRT PTSUNNY   66  57  72 SW5       29.99F
$$
MNZ029>031-032-039>041-046>048-054>057-064-022200-
   West Central Minnesota

CITY           SKY/WX    TMP DP  RH WIND       PRES   REMARKS
FERGUS FALLS   SUNNY     73  54  49 S8        29.98S
WHEATON        MOSUNNY   72  50  46 S5        30.00S
MORRIS         MOSUNNY   75  48  38 SE8       29.99F
ALEXANDRIA     MOSUNNY   73  53  49 SW12      30.02F
ELBOW LAKE     FAIR      74  49  42 SE10      29.99F
WADENA         SUNNY     75  54  46 S7        30.00S
GLENWOOD       MOSUNNY   73  52  46 S8        30.02F
APPLETON       MOSUNNY   75  46  35 S5        29.99S
BENSON         MOSUNNY   75  45  33 SW3       30.00S
ORTONVILLE     PTSUNNY   73  48  40 S5        29.99F
MADISON        PTSUNNY   73  48  40 S3        30.00S
WILLMAR        FAIR      75  50  41 S5        30.01F
$$
MNZ033>034-036-042>043-049>051-058-059-022200-
   Central Minnesota

CITY           SKY/WX    TMP DP  RH WIND       PRES   REMARKS
ST CLOUD       MOSUNNY   76  53  44 S7        30.00F
SAUK CENTRE    FAIR      73  56  55 S6        30.02S
PAYNESVILLE    MOSUNNY   71  52  51 E5        30.02S
AITKIN         SUNNY     77  59  53 SE6       29.98F
PINE RIVER       N/A     75  57  53 S6        30.02F
BRAINERD       MOSUNNY   77  53  43 SW7       30.00S
STAPLES        SUNNY     75  52  43 SW9       30.00S
LONG PRAIRIE   PTSUNNY   72  55  56 S7        30.02S
LITTLE FALLS   MOSUNNY   77  50  38 S9        30.01S
LITCHFIELD     MOSUNNY   73  54  49 S5        30.01F
BUFFALO        MOSUNNY   74  53  47 SW6       30.01F
MAPLE LAKE     MOSUNNY   74  57  55 E3        30.02S
$$
MNZ037-044-045-052-053-022200-
   East Central Minnesota

CITY           SKY/WX    TMP DP  RH WIND       PRES   REMARKS
PRINCETON      MOSUNNY   79  54  41 SE6       30.00S
MORA           MOSUNNY   73  50  43 S6        30.01F
CAMBRIDGE      SUNNY     79  57  47 CALM      29.98F
RUSH CITY      SUNNY     76  53  45 S6        30.00F
MOOSE LAKE     SUNNY     75  61  60 S7        29.97F
HINCKLEY       FAIR      77  54  44 SW3       29.99F
CLOQUET        MOSUNNY   75  54  46 S3        29.98F
MCGREGOR       MOSUNNY   77  57  50 CALM      29.99F
$$
MNZ071>073-080-081-089-090-097-098-022200-
   Southwest Minnesota

CITY           SKY/WX    TMP DP  RH WIND       PRES   REMARKS
MONTEVIDEO     PTSUNNY   75  52  43 SW7       30.01S
GRANITE FALLS  PTSUNNY   73  47  39 CALM      30.02S
CANBY          CLOUDY    71  54  55 E3        30.01S
MARSHALL       PTSUNNY   72  48  43 SE5       29.99F
REDWOOD FALLS  CLOUDY    74  47  38 S5        30.00F
OLIVIA         PTSUNNY   72  45  37 S3        30.00F
PIPESTONE      CLOUDY    70  48  46 S6        30.02R
WINDOM         PTSUNNY   75  46  35 SE7       30.01S
WORTHINGTON    PTSUNNY   68  46  45 SE8       30.02R
JACKSON        PTSUNNY   73  48  40 SE8       30.02S
TRACY          PTSUNNY   73  49  43 SE5       30.01S
SLAYTON        PTSUNNY   72  45  38 CALM      30.03R
$$
MNZ065>067-074>077-082>085-091>093-022200-
   South Central Minnesota

CITY           SKY/WX    TMP DP  RH WIND       PRES   REMARKS
MANKATO        MOSUNNY   72  50  46 S7        30.01S
NEW ULM        PTSUNNY   72  48  43 S3        30.01S
ST JAMES       PTSUNNY   73  52  46 CALM      30.01F
FAIRMONT       PTSUNNY   73  48  40 SE10      30.00S
GLENCOE        MOSUNNY   76  57  50 S5        30.00F
FARIBAULT      MOSUNNY   75  54  46 E3        30.02S
OWATONNA       MOSUNNY   73  50  43 SE7       30.02S
WASECA         MOSUNNY   72  52  49 SE5       30.03S
ALBERT LEA     MOSUNNY   73  52  46 S5        30.01S
$$
MNZ078>079-086>088-094>096-022200-
   Southeast Minnesota

CITY           SKY/WX    TMP DP  RH WIND       PRES   REMARKS
ROCHESTER      SUNNY     74  55  51 E8        30.02F
RED WING       SUNNY     77  46  33 SE6       30.00S
STANTON        SUNNY     75  52  43 CALM      30.00S
DODGE CENTER   SUNNY     73  54  49 SE3       30.02S
WINONA         SUNNY     73  52  46 E6        30.01F
AUSTIN         MOSUNNY   73  50  43 S5        30.01S
PRESTON        SUNNY     72  51  48 E5        30.03S
$$
ABBREVIATIONS USED IN REMARKS
   TC - TEMPERATURES IN CELSIUS
  WCI - WIND CHILL INDEX
   HX - HEAT INDEX
  VSB - VISIBILITY
$$



USA.gov is the U.S. government's official web portal to all federal, state and local government web resources and services.